Regional Weather Roundup
Issued by NWS

Home | Current Version | Previous Version | Text Only | Print | Product List | Glossary Off
Versions: 1 2 3 4 5 6 7 8 9 10 11 12 13 14 15 16 17 18 19 20 21 22 23 24 25 26 27 28 29 30 31 32 33 34 35 36 37 38 39 40 41 42 43 44 45 46 47 48 49 50

550
ASUS43 KMPX 030201
RWRMN
WEATHER ROUNDUP FOR MINNESOTA
NATIONAL WEATHER SERVICE TWIN CITIES/CHANHASSEN MN
900 PM CDT MON MAY 02 2016


NOTE: "FAIR" INDICATES FEW OR NO CLOUDS BELOW 12,000 FEET WITH NO
SIGNIFICANT WEATHER AND/OR OBSTRUCTIONS TO VISIBILITY. N/A MEANS
CURRENT SKY AND/OR WEATHER CONDITIONS ARE NOT AVAILABLE.

MNZ060>063-068>070-030300-
   Twin Cities Metro

CITY           SKY/WX    TMP DP  RH WIND       PRES   REMARKS
TWIN CITIES    PTCLDY    61  28  28 CALM      30.00S
ST PAUL        PTCLDY    59  33  37 SW5       30.01R
CRYSTAL        CLEAR     58  32  37 CALM      29.99S
BLAINE         PTCLDY    59  30  33 VRB3      30.00S
EDEN PRAIRIE   CLEAR     61  29  29 CALM      30.00R
SOUTH ST PAUL  PTCLDY    59  32  35 CALM      30.00S
LAKE ELMO      FAIR      54  37  54 CALM      30.01S
$$
MNZ001>005-007-008-013>017-022>024-027-028-030300-
   Northwest Minnesota

CITY           SKY/WX    TMP DP  RH WIND       PRES   REMARKS
BEMIDJI        PTCLDY    56  28  33 CALM      29.95S
HALLOCK        CLOUDY    64  25  22 CALM      29.93S
ROSEAU         CLOUDY    63  32  31 CALM      29.93S
WARROAD        PTCLDY    59  36  41 SW6       29.93S
THIEF RVR FALL CLEAR     59  23  25 CALM      29.95F
CROOKSTON      CLEAR     61  28  29 NW3       29.95S
FOSSTON        CLEAR     57  28  33 CALM      29.96S
DETROIT LAKES  CLEAR     61  28  29 SW3       29.99R
MOORHEAD       CLEAR     63  34  34 W8        29.97S
PARK RAPIDS    CLEAR     55  31  39 SW6       29.96S
MAHNOMEN       FAIR      62  27  26 CALM      29.96S
$$
MNZ006-009>011-018-025>026-030300-
   North Central Minnesota

CITY           SKY/WX    TMP DP  RH WIND       PRES   REMARKS
BAUDETTE       PTCLDY    55  34  45 CALM      29.93F
FLAG ISLAND    PTCLDY    54  41  62 S5        29.91S
INTL FALLS     CLEAR     52  33  48 CALM      29.93S
WASKISH        CLEAR     57  34  41 S3        29.94S
BIG FORK       CLEAR     54  28  37 CALM      29.95S
LONGVILLE      CLEAR     52  36  54 CALM      29.96F
GRAND RAPIDS   CLEAR     54  25  32 CALM      29.97F
CRANE LAKE     CLEAR     46  36  66 CALM      29.95S
ORR            PTCLDY    55  27  33 CALM      29.92S
COOK           CLEAR     54  30  40 CALM      29.95S
WALKER         FAIR      58  31  36 CALM      29.96S
$$
MNZ012-019>021-037-030300-
   Northeast Minnesota

CITY           SKY/WX    TMP DP  RH WIND       PRES   REMARKS
DULUTH         PTCLDY    56  30  37 S3        29.97S
ELY            PTCLDY    54  28  37 CALM      29.94F
HIBBING        PTCLDY    51  30  44 SW5       29.95S
EVELETH        PTCLDY    52  32  46 CALM      29.97S
DULUTH HARBOR  CLEAR     41  37  87 E8        29.99S
TWO HARBORS    CLEAR     48  36  61 CALM      29.96S
SILVER BAY     PTCLDY    45  34  65 CALM      29.96S
GRAND MARAIS     N/A     42  34  73 CALM      29.98F
G MARAIS ARPRT CLEAR     43  27  52 CALM      29.99F
$$
MNZ029>031-032-039>041-046>048-054>057-064-030300-
   West Central Minnesota

CITY           SKY/WX    TMP DP  RH WIND       PRES   REMARKS
FERGUS FALLS   CLEAR     61  34  36 S3        29.95S
WHEATON        CLEAR     59  34  38 SE5       30.00S
MORRIS         CLOUDY    63  28  27 S3        29.98S
ALEXANDRIA     CLEAR     57  29  34 S6        30.00S
ELBOW LAKE     FAIR      57  32  38 S5        29.99S
WADENA         CLEAR     55  30  38 CALM      29.97S
GLENWOOD       CLEAR     57  30  35 S5        30.00S
APPLETON       PTCLDY    59  28  31 CALM      29.99R
BENSON         CLOUDY    57  25  28 CALM      29.99S
ORTONVILLE     PTCLDY    57  36  44 CALM      29.99R
MADISON        CLEAR     61  30  31 CALM      30.00R
WILLMAR        CLOUDY    61  34  36 CALM      30.01S
$$
MNZ033>034-036-042>043-049>051-058-059-030300-
   Central Minnesota

CITY           SKY/WX    TMP DP  RH WIND       PRES   REMARKS
ST CLOUD       CLEAR     56  35  45 CALM      29.99S
SAUK CENTRE    FAIR      58  31  35 CALM      29.99S HAZE
PAYNESVILLE    MOCLDY    56  35  45 CALM      30.00S
AITKIN         CLEAR     55  27  33 CALM      29.97R
PINE RIVER     CLEAR     55  36  47 CALM      30.00S
BRAINERD       CLEAR     54  34  46 SE5       29.98S
STAPLES        CLEAR     55  28  35 CALM      29.98S
LONG PRAIRIE   FAIR      54  34  47 CALM      30.00S
LITTLE FALLS   CLEAR     54  32  43 CALM      29.99S
LITCHFIELD     MOCLDY    57  36  44 CALM      30.01S
BUFFALO        CLEAR     58  33  39 CALM      30.01S
MAPLE LAKE     MOCLDY    55  39  55 CALM      30.01S
HUTCHINSON     CLOUDY    59  37  43 CALM      30.02R
$$
MNZ037-044-045-052-053-030300-
   East Central Minnesota

CITY           SKY/WX    TMP DP  RH WIND       PRES   REMARKS
PRINCETON        N/A     54  36  50 CALM      30.00S
MORA           CLEAR     54  32  43 CALM      30.00F
CAMBRIDGE      CLEAR     55  37  50 CALM      29.98S
RUSH CITY      PTCLDY    52  35  50 CALM      29.99S
MOOSE LAKE     PTCLDY    54  32  43 CALM      29.96S
HINCKLEY       FAIR      55  34  44 W5        29.98S
CLOQUET        CLEAR     54  30  40 CALM      29.98R
MCGREGOR       CLEAR     55  32  41 SW3       29.98S
$$
MNZ071>073-080-081-089-090-097-098-030300-
   Southwest Minnesota

CITY           SKY/WX    TMP DP  RH WIND       PRES   REMARKS
MONTEVIDEO     PTCLDY    57  30  35 CALM      30.02R
GRANITE FALLS  MOCLDY    60  34  38 S5        30.01R
CANBY          PTCLDY    59  39  46 CALM      30.01R
MARSHALL       PTCLDY    59  35  40 SW5       30.00R
REDWOOD FALLS  CLEAR     60  32  34 SW5       30.00R
OLIVIA         MOCLDY    55  32  41 CALM      30.00R
PIPESTONE      CLEAR     55  43  62 SW3       30.01S
WINDOM         CLEAR     55  39  54 CALM      30.02R
WORTHINGTON    CLEAR     55  42  61 S5        30.02S
JACKSON        CLEAR     55  34  44 S3        30.03S
TRACY          PTCLDY    56  40  54 S5        30.01R
SLAYTON        CLEAR     57  40  53 SW5       30.02S
$$
MNZ065>067-074>077-082>085-091>093-030300-
   South Central Minnesota

CITY           SKY/WX    TMP DP  RH WIND       PRES   REMARKS
MANKATO        CLEAR     59  34  38 S5        30.02R
NEW ULM        CLEAR     57  37  47 S5        30.01R
ST JAMES       CLEAR     50  39  66 SE3       30.03R
FAIRMONT       CLEAR     57  36  44 S5        30.02S
GLENCOE        PTCLDY    58  37  45 CALM      30.00S
FARIBAULT      CLEAR     54  37  54 CALM      30.02R
OWATONNA       PTCLDY    55  37  50 CALM      30.02R
WASECA         CLEAR     54  36  50 CALM      30.04R
ALBERT LEA     PTCLDY    55  39  54 CALM      30.03R
$$
MNZ078>079-086>088-094>096-030300-
   Southeast Minnesota

CITY           SKY/WX    TMP DP  RH WIND       PRES   REMARKS
ROCHESTER      PTCLDY    53  44  71 SW7       30.03R
RED WING       MOCLDY    55  41  58 CALM      30.00S
STANTON        CLEAR     55  36  48 CALM      30.00S
DODGE CENTER   MOCLDY    52  37  58 SW5       30.02S
WINONA         MOCLDY    54  41  62 CALM      30.02S
AUSTIN         CLOUDY    55  39  54 CALM      30.03R
PRESTON        CLEAR     55  37  51 SW5       30.04R
$$
ABBREVIATIONS USED IN REMARKS
   TC - TEMPERATURES IN CELSIUS
  WCI - WIND CHILL INDEX
   HX - HEAT INDEX
  VSB - VISIBILITY
$$




USA.gov is the U.S. government's official web portal to all federal, state and local government web resources and services.